Home > Weather > Bantam > Past weeks

Flag for Cocos Islands Past Weather in Bantam, Cocos Islands — Yesterday and Last 2 Weeks

Now
79 °F

Scattered showers. Partly sunny.


Feels Like: 82 °F
Forecast: 77 / 81 °F
Wind: 13 mph from Southeast

Location: Cocos Island Airport

Current Time: Aug 26, 2016 at 8:13:05 AM

Latest Report: Aug 26, 2016 at 7:30 AM


Visibility: N/A

Pressure: 29.80 "Hg

Humidity: 84%

Dew Point: 73 °F

Location of BantamLocation

Past Weather in Bantam — Graph

°F

Bantam Temperature Yesterday

Maximum temperature yesterday: 82 °F (at 12:00 PM)
Minimum temperature yesterday: 72 °F (at 4:30 AM)
Average temperature yesterday: 78 °F

High & Low Weather Summary for the Past Weeks

 TemperatureHumidityPressure
High82 °F (Aug 13, 10:00 AM)94% (Aug 11, 12:35 PM)29.98 "Hg (Aug 11, 12:35 PM)
Low72 °F (Aug 25, 4:30 AM)54% (Aug 21, 9:00 AM)29.74 "Hg (Aug 25, 2:00 PM)
Average79 °F76%29.88 "Hg
* Reported Aug 11 6:30 AM — Aug 26 6:30 AM, Bantam, Weather by CustomWeather, © 2016

Note: Actual official high and low records may vary slightly from our data, if they occured in-between our weather recording intervals... More about our weather records

Advertising

Bantam Weather History for the Previous 24 Hours

Scroll right to see more
 ConditionsComfort  
Time TempWeatherWind HumidityBarometerVisibility
6:30 AM
Fri, Aug 26
79 °FOvercast.10 mph74%29.77 "HgN/A
6:00 AM79 °FOvercast.12 mph79%29.77 "HgN/A
5:30 AM79 °FPartly cloudy.13 mph84%29.74 "HgN/A
5:00 AM79 °FOvercast.13 mph84%29.74 "HgN/A
4:30 AM79 °FOvercast.12 mph84%29.74 "HgN/A
4:00 AM79 °FMostly cloudy.10 mph79%29.74 "HgN/A
3:30 AM79 °FPassing clouds.12 mph84%29.77 "HgN/A
3:00 AM79 °FPassing clouds.13 mph84%29.74 "HgN/A
2:30 AM79 °FPassing clouds.13 mph84%29.74 "HgN/A
2:00 AM79 °FPassing clouds.15 mph84%29.77 "HgN/A
1:30 AM79 °FPartly cloudy.15 mph84%29.77 "HgN/A
12:30 AM79 °FPartly cloudy.15 mph84%29.80 "HgN/A
12:00 AM79 °FPassing clouds.16 mph84%29.80 "HgN/A
11:30 PM
Thu, Aug 25
79 °FPassing clouds.18 mph84%29.80 "HgN/A
10:30 PM79 °FPassing clouds.15 mph84%29.80 "HgN/A
10:26 PM79 °FPassing clouds.16 mph84%29.80 "HgN/A
9:30 PM79 °FPassing clouds.15 mph84%29.83 "HgN/A
8:30 PM79 °FPassing clouds.15 mph84%29.83 "HgN/A
7:35 PM79 °FMostly cloudy.14 mph84%29.80 "HgN/A
6:30 PM79 °FScattered clouds.12 mph84%29.80 "HgN/A
6:00 PM79 °FScattered clouds.12 mph89%29.77 "HgN/A
5:30 PM79 °FScattered clouds.14 mph84%29.77 "HgN/A
5:00 PM81 °FScattered clouds.13 mph79%29.74 "HgN/A
4:30 PM81 °FScattered clouds.14 mph79%29.74 "HgN/A
3:30 PM81 °FBroken clouds.13 mph79%29.74 "HgN/A
3:00 PM81 °FBroken clouds.14 mph79%29.74 "HgN/A
2:30 PM81 °FBroken clouds.14 mph79%29.74 "HgN/A
2:00 PM81 °FMostly cloudy.14 mph84%29.74 "HgN/A
1:30 PM81 °FCloudy.14 mph79%29.77 "HgN/A
12:30 PM81 °FMore clouds than sun.14 mph79%29.77 "HgN/A
12:00 PM82 °FCloudy.14 mph74%29.80 "HgN/A
11:30 AM81 °FMore clouds than sun.15 mph79%29.80 "HgN/A
11:00 AM81 °FPartly sunny.14 mph79%29.80 "HgN/A
10:30 AM81 °FPartly sunny.13 mph79%29.80 "HgN/A
10:00 AM81 °FPartly sunny.14 mph79%29.83 "HgN/A
9:30 AM81 °FPartly sunny.12 mph79%29.83 "HgN/A
9:00 AM81 °FPartly sunny.10 mph79%29.83 "HgN/A
8:30 AM79 °FPartly sunny.9 mph84%29.83 "HgN/A
8:00 AM79 °FPartly sunny.9 mph84%29.83 "HgN/A
Weather by CustomWeather, © 2016

See weather overviewHow to use our weather pages